This is the latest recevied weather packets stored in our database for station/object SQ6IUS-13. If no packets are shown the sender has not sent any weather packets the latest 10 day(s).
| Time | Temp. | Humidity | Pressure | Rain* | Wind** | Luminosity | Snow |
|---|---|---|---|---|---|---|---|
| 1777454774 | 17.22° C | 22% | 1029 hPa | - | - | - | - |
| 1777453874 | 16.11° C | 23% | 1029.2 hPa | - | - | - | - |
| 1777450277 | 12.22° C | 26% | 1029.2 hPa | - | - | - | - |
| 1777449377 | 12.78° C | 28% | 1029.2 hPa | - | - | - | - |
| 1777448478 | 11.67° C | 30% | 1029 hPa | - | - | - | - |
| 1777447578 | 10° C | 32% | 1029 hPa | - | - | - | - |
| 1777446678 | 7.78° C | 37% | 1029 hPa | - | - | - | - |
| 1777445779 | 6.67° C | 41% | 1028.9 hPa | - | - | - | - |
| 1777444880 | 5.56° C | 46% | 1028.7 hPa | - | - | - | - |
| 1777443982 | 5.56° C | 50% | 1028.8 hPa | - | - | - | - |
| 1777443083 | 5° C | 52% | 1028.6 hPa | - | - | - | - |
| 1777442184 | 4.44° C | 57% | 1028.5 hPa | - | - | - | - |
| 1777441285 | 3.89° C | 64% | 1028.3 hPa | - | - | - | - |
| 1777440386 | 3.33° C | 69% | 1028.3 hPa | - | - | - | - |
| 1777438588 | 1.67° C | 97% | 1027.7 hPa | - | - | - | - |
| 1777437689 | 1.11° C | 100% | 1027.6 hPa | - | - | - | - |
| 1777435867 | -0.56° C | 100% | 1027.6 hPa | - | - | - | - |
| 1777434968 | 0° C | 100% | 1027.5 hPa | - | - | - | - |
| 1777426877 | 1.11° C | 100% | 1026.6 hPa | - | - | - | - |
| 1777425978 | 1.11° C | 100% | 1026.5 hPa | - | - | - | - |
| 1777421483 | 2.22° C | 100% | 1026.1 hPa | - | - | - | - |
| 1777413391 | -1.11° C | 100% | 1025.6 hPa | - | - | - | - |
| 1777411594 | 0° C | 100% | 1025.5 hPa | - | - | - | - |
| 1777410695 | 0° C | 100% | 1025.4 hPa | - | - | - | - |
| 1777407997 | 1.67° C | 100% | 1025.4 hPa | - | - | - | - |
* Rain since midnight (hover to see other rain measurements)
** Current wind speed in m/s (hover to see current wind gust speed)